Coffeyville, KS

8:38 PM CDT on July 23, 2017 (GMT -0500)
Coffeyville Municipal

Weather History for KCFV - August, 2013

Change the Weather History Date:

Friday, August 2, 2013

  Actual Average Record
Temperature  
Mean Temperature 82 °F -  
Max Temperature 91 °F 90 °F 111 °F (2011)
Min Temperature 73 °F 67 °F 62 °F (2014)
Cooling Degree Days 17    
Growing Degree Days 32 (Base 50)    
Moisture  
Dew Point 74 °F    
Average Humidity 82    
Maximum Humidity 94    
Minimum Humidity 66    
Precipitation  
Precipitation 0.12 in - - ()
Sea Level Pressure  
Sea Level Pressure 29.88 in    
Wind  
Wind Speed 8 mph (SSE)    
Max Wind Speed 15 mph    
Max Gust Speed 20 mph    
Visibility 8 miles    
Events Rain , Thunderstorm    
Averages and records for this station are not official NWS values.
T = Trace of Precipitation, MM = Missing Value Source: NWS Daily Summary

Daily Weather History Graph

Daily Weather History Graph

Search for Another Location

Airport or City:

Trip Planner

Search our weather history database for the weather conditions in past years. The results will help you decide how hot, cold, wet, or windy it might be!

Date:

Astronomy

Aug. 02, 2013 Rise Set
Actual Time 6:28 AM CDT 8:28 PM CDT
Civil Twilight 5:59 AM CDT 8:56 PM CDT
Nautical Twilight 5:24 AM CDT 9:31 PM CDT
Astronomical Twilight 4:47 AM CDT 10:08 PM CDT
Moon 2:51 AM CDT (8/2) 5:25 PM CDT (8/2)
Length of Visible Light 14h 57m
Length of Day
13h 59m
Waning Crescent, 15% of the Moon is Illuminated
Aug 2
Waning Crescent
Aug 6
New
Aug 14
First Quarter
Aug 20
Full
Aug 28
Last Quarter

Hourly Weather History & Observations

Time (CDT) Temp. Heat Index Dew Point Humidity Pressure Visibility Wind Dir Wind Speed Gust Speed Precip Events Conditions
12:52 AM 77.0 °F - 69.1 °F 76% 29.92 in 10.0 mi SSE 6.9 mph - N/A   Clear
1:52 AM 77.0 °F - 70.0 °F 79% 29.88 in 10.0 mi SSE 9.2 mph - N/A   Clear
2:52 AM 77.0 °F - 70.0 °F 79% 29.89 in 10.0 mi SE 4.6 mph - N/A   Clear
3:52 AM 75.9 °F - 70.0 °F 82% 29.89 in 10.0 mi South 5.8 mph - N/A   Clear
4:52 AM 75.0 °F - 69.1 °F 82% 29.89 in 10.0 mi SSE 5.8 mph - N/A   Clear
5:52 AM 75.0 °F - 69.1 °F 82% 29.89 in 10.0 mi SSE 5.8 mph - N/A   Clear
6:52 AM 75.9 °F - 70.0 °F 82% 29.92 in 10.0 mi ESE 4.6 mph - N/A   Mostly Cloudy
7:52 AM 75.0 °F - 70.0 °F 84% 29.91 in 10.0 mi ESE 6.9 mph - 0.01 in   Mostly Cloudy
8:43 AM 75.2 °F - 71.6 °F 89% 29.94 in 8.0 mi ENE 3.5 mph - 0.00 in Rain Light Rain
8:52 AM 75.0 °F - 72.0 °F 90% 29.93 in 7.0 mi NNE 6.9 mph - 0.00 in Rain Light Rain
9:12 AM 75.2 °F - 71.6 °F 89% 29.94 in 7.0 mi Calm Calm - 0.02 in Rain Light Rain
9:52 AM 73.9 °F - 72.0 °F 93% 29.94 in 5.0 mi SSW 6.9 mph - 0.06 in Rain Light Rain
10:27 AM 73.4 °F - 71.6 °F 94% 29.95 in 7.0 mi SSW 12.7 mph - 0.00 in Thunderstorm Scattered Clouds
10:52 AM 73.9 °F - 72.0 °F 93% 29.91 in 4.0 mi South 11.5 mph 19.6 mph 0.02 in Rain Light Rain
11:01 AM 73.4 °F - 71.6 °F 94% 29.92 in 4.0 mi Variable 5.8 mph - 0.02 in Rain , Thunderstorm Light Rain
11:09 AM 75.2 °F - 71.6 °F 89% 29.91 in 5.0 mi ESE 6.9 mph - 0.03 in Rain , Thunderstorm Light Rain
11:11 AM 73.4 °F - 71.6 °F 94% 29.91 in 5.0 mi ESE 8.1 mph - 0.03 in Rain , Thunderstorm Light Rain
11:32 AM 75.2 °F - 73.4 °F 94% 29.91 in 10.0 mi South 8.1 mph - 0.03 in   Scattered Clouds
11:52 AM 78.1 °F - 73.9 °F 87% 29.89 in 10.0 mi South 12.7 mph 17.3 mph 0.03 in   Clear
12:52 PM 86.0 °F 95.1 °F 75.0 °F 70% 29.85 in 10.0 mi South 10.4 mph - 0.00 in   Partly Cloudy
1:52 PM 84.9 °F 93.3 °F 75.0 °F 72% 29.84 in 10.0 mi South 13.8 mph - N/A   Clear
2:52 PM 89.1 °F 101.4 °F 77.0 °F 67% 29.83 in 10.0 mi South 15.0 mph - N/A   Clear
3:48 PM 87.8 °F 97.6 °F 75.2 °F 66% 29.85 in 9.0 mi SSE 11.5 mph - N/A Thunderstorm Scattered Clouds
3:52 PM 86.0 °F 96.0 °F 75.9 °F 72% 29.82 in 9.0 mi South 12.7 mph - N/A Thunderstorm Scattered Clouds
4:07 PM 86.0 °F 96.9 °F 77.0 °F 74% 29.84 in 9.0 mi SSE 9.2 mph - N/A   Clear
4:52 PM 89.1 °F 103.2 °F 78.1 °F 70% 29.81 in 10.0 mi South 11.5 mph - N/A   Clear
5:52 PM 91.0 °F 107.6 °F 79.0 °F 68% 29.82 in 10.0 mi South 12.7 mph - N/A   Clear
6:52 PM 89.1 °F 103.2 °F 78.1 °F 70% 29.81 in 10.0 mi South 6.9 mph - N/A   Clear
7:52 PM 88.0 °F 103.1 °F 79.0 °F 75% 29.82 in 9.0 mi SE 6.9 mph - N/A   Clear
8:52 PM 84.9 °F 97.5 °F 79.0 °F 82% 29.82 in 9.0 mi ESE 5.8 mph - N/A   Clear
9:52 PM 82.9 °F 93.8 °F 79.0 °F 88% 29.84 in 7.0 mi ENE 6.9 mph - N/A   Clear
10:52 PM 82.0 °F 91.6 °F 79.0 °F 90% 29.85 in 7.0 mi ENE 5.8 mph - N/A   Clear
11:52 PM 81.0 °F 88.6 °F 78.1 °F 91% 29.86 in 6.0 mi East 6.9 mph - N/A   Clear